Location: ????
(33.1659°N, 35.6604°E)
Time: 19:08:02
(UTC+00:00)

Cosmos 405 - Pass Details

Date: 20 September 2019
Orbit: 452 x 467 km, 81.3° (Epoch: 15 October)

Event Time Altitude Azimuth Distance (km) Brightness Sun altitude
Rises 16:10:29 0° 346° (NNW) 2,474 6.9 -7.7°
Reaches altitude 10° 16:12:37 10° 340° (NNW) 1,594 6.0 -8.2°
Maximum altitude 16:15:59 49° 265° (W) 590 4.0 -8.9°
Drops below altitude 10° 16:19:19 10° 189° (S) 1,578 5.7 -9.6°
Sets 16:21:24 0° 184° (S) 2,445 6.6 -10.0°
